Location: Maiden
(35.5760°N, 81.2120°W)
Time: 03:24:27
(UTC-04:00)

VEP-3 - Pass Details

Date: 02 August 2020
Orbit: 1021 x 33722 km, 23.7° (Epoch: 11 August)

Event Time Altitude Azimuth Distance (km) Brightness Sun altitude
Rises 21:51:24 0° 256° (WSW) 3,754 6.2 -15.8°
Reaches altitude 10° 21:53:50 10° 243° (WSW) 2,848 5.3 -16.2°
Maximum altitude 21:58:49 29° 181° (S) 2,369 4.2 -17.0°
Enters shadow 22:03:02 21° 143° (SE) 3,604 4.8 -17.7°
